sat.trackr.live / text

‹ back to catalog

STARLINK-35620

NORAD 66474 · 2025-262U

PAYLOAD ACTIVE UNKNOWN

§ Identity

Operator
Country
US
Launch date
2025-11-15
Launch site
AFETR
Launch vehicle
Mass (kg)
RCS (m²)

Purposes: comms

External: N2YO · Heavens-Above · Gunter

§ Orbital elements

Epoch: 2026-09-20T09:08:08.504736Z

Period
94.27 min
Inclination
43.0009°
Eccentricity
0.0001507
Mean motion
15.27586120 rev/d
Perigee alt
482.0 km
Apogee alt
484.1 km
Semi-major
6,861.2 km
B*
4.3646e-4
RAAN
276.5027°
Arg perigee
261.5042°
Mean anomaly
98.5639°
Rev number
4,868

§ Raw data

STARLINK-356201 66474U 25262U   26263.38065399  .00011770  00000+0  43646-3 0  99972 66474  43.0009 276.5027 0001507 261.5042  98.5639 15.27586120 48680

JSON: /api/v1/satellites/66474 · /tle

For live sub-satellite position, see the globe view (requires WebGL).

§ Visibility from observer

Set your observer location to see the next 7 days of passes ≥ 10°. The values pass through the URL so the page stays shareable.

No JS? Fill the form by hand. The geolocation button needs JavaScript.